[[{"header":{"parameterUnit":"m.s-1","parameterCategory":1,"la1":30.2991,"la2":30.254,"lo1":-89.0895,"lo2":-89.0444,"dy":0.0017,"dx":0.0017,"nx":28,"ny":28,"refTime":"2025-03-26T09:00:00:Z","depth":0,"parameterNumber":2,"parameterNumberName":"U-component_of_WINDS"},"data":[0,0,0,0,0,0,0,0,0,0,0,0,0,0,0,0,0,0,0,0,0,0,0,0,0,0,0,0,0,0,0,0,0,0,0,0,0,0,0,0,0,0,0,0,0,0,0,0,0,0,0,0,0,0,0,0,0,0,-0.7563,-0.7562,0,-0.7471,-0.7469,-0.7468,-0.7427,-0.7427,-0.7427,-0.7427,-0.7328,-0.7325,-0.7322,0,0,0,0,0,0,0,0,0,0,0,0,0,-0.7701,-0.7699,-0.7563,-0.7562,-0.7561,-0.7471,-0.7469,-0.7468,-0.7427,-0.7427,-0.7427,-0.7427,-0.7328,-0.7325,-0.7322,0,0,0,0,0,0,0,0,0,0,0,0,0,-0.7628,-0.7698,-0.7564,-0.753,-0.7526,-0.7471,-0.7469,-0.7468,-0.7427,-0.7427,-0.7427,-0.7427,-0.733,-0.7326,-0.7321,-0.7292,0,0,-0.7309,-0.7307,0,0,0,0,0,0,0,0,-0.7632,-0.7623,-0.7536,-0.7532,-0.7527,-0.746,-0.7482,-0.7409,-0.7426,-0.7464,-0.7427,-0.7427,-0.7371,-0.7364,-0.7346,-0.7288,-0.7284,-0.7308,-0.7306,-0.7304,-0.7303,0,0,0,0,0,0,0,-0.7637,-0.7627,-0.7526,-0.7534,-0.7529,-0.7518,-0.7508,-0.7468,-0.7418,-0.7461,-0.7457,-0.7447,-0.7369,-0.735,-0.7343,-0.7282,-0.7309,-0.7305,-0.7302,-0.7301,-0.7196,-0.7196,0,0,0,0,0,0,-0.7649,-0.7631,-0.7529,-0.7524,-0.7581,-0.7515,-0.7504,-0.7482,-0.7418,-0.7409,-0.7447,-0.7446,-0.7357,-0.7348,-0.734,-0.7302,-0.7304,-0.73,-0.7298,-0.7197,-0.7196,-0.7196,0,0,0,0,0,0,-0.7652,-0.764,-0.7533,-0.7577,-0.7562,-0.7513,-0.7488,-0.748,-0.7461,-0.7408,-0.7398,-0.7437,-0.7357,-0.7345,-0.7305,-0.7298,-0.7298,-0.7295,-0.7197,-0.7197,-0.7196,-0.7226,0,0,0,0,0,0,-0.7656,-0.7641,-0.763,-0.7577,-0.756,-0.7501,-0.7488,-0.7478,-0.7454,-0.7451,-0.7396,-0.7387,-0.7356,-0.7311,-0.7301,-0.7292,-0.7292,-0.7197,-0.7197,-0.7196,-0.7225,-0.7226,-0.7227,0,0,0,0,0,-0.7661,-0.7641,-0.763,-0.7618,-0.7546,-0.7501,-0.7491,-0.7457,-0.7454,-0.7442,-0.7408,-0.7389,-0.7301,-0.7308,-0.7295,-0.7285,-0.7198,-0.7197,-0.7196,-0.7225,-0.7226,-0.7227,0,0,0,0,0,0,-0.7693,-0.7633,-0.762,-0.7583,-0.7548,-0.7494,-0.7478,-0.746,-0.7423,-0.7422,-0.738,-0.7368,-0.7331,-0.7304,-0.7313,-0.7254,-0.7247,-0.7244,-0.7273,-0.7274,-0.7275,-0.7282,-0.7288,0,0,0,0,0,-0.7697,-0.7666,-0.7615,-0.7587,-0.757,-0.7527,-0.7506,-0.7484,-0.7445,-0.7429,-0.7392,-0.7354,-0.7318,-0.7294,-0.7258,-0.7222,-0.7209,-0.7209,-0.721,-0.7211,-0.7208,-0.7187,-0.7187,-0.7194,-0.7194,-0.7194,0,0,-0.7702,-0.7665,-0.7648,-0.7593,-0.7562,-0.7531,-0.7515,-0.7482,-0.7458,-0.7423,-0.7383,-0.7355,-0.731,-0.7272,-0.7253,-0.7248,-0.7204,-0.721,-0.7211,-0.7208,-0.7187,-0.7186,-0.7185,-0.7193,-0.7193,-0.7193,0,0,-0.7695,-0.7665,-0.7639,-0.761,-0.7565,-0.7537,-0.7531,-0.748,-0.7461,-0.742,-0.7394,-0.7365,-0.7303,-0.7272,-0.7248,-0.7233,-0.7213,-0.7222,-0.7227,-0.7207,-0.7207,-0.7206,-0.72,-0.7199,-0.722,-0.722,-0.722,0,-0.7707,-0.766,-0.7627,-0.7596,-0.7572,-0.7542,-0.7514,-0.7487,-0.7432,-0.7416,-0.7412,-0.7335,-0.7302,-0.7256,-0.7253,-0.7235,-0.7226,-0.7227,-0.721,-0.7209,-0.7207,-0.7201,-0.7199,-0.7221,-0.7221,-0.7221,-0.7221,0,-0.7677,-0.7645,-0.7628,-0.7578,-0.7553,-0.7524,-0.7486,-0.7464,-0.7444,-0.7416,-0.7376,-0.7336,-0.7291,-0.7279,-0.7258,-0.7231,-0.7229,-0.7218,-0.721,-0.7209,-0.7202,-0.72,-0.7223,-0.7223,-0.7222,-0.7222,0,0,-0.7686,-0.762,-0.7614,-0.7592,-0.7541,-0.7515,-0.7485,-0.7443,-0.7425,-0.7389,-0.7362,-0.7312,-0.7302,-0.7275,-0.7251,-0.7234,-0.7224,-0.7224,-0.7223,-0.7225,-0.7191,-0.7199,-0.7197,-0.7212,-0.7211,-0.7211,-0.7194,0,-0.7672,-0.7618,-0.7588,-0.7546,-0.7516,-0.7488,-0.7461,-0.7427,-0.7401,-0.7371,-0.7341,-0.7307,-0.7296,-0.728,-0.7262,-0.7229,-0.7216,-0.723,-0.7185,-0.7184,-0.7196,-0.7193,-0.7201,-0.7188,-0.7192,-0.7191,-0.7191,0,-0.7648,-0.7615,-0.757,-0.7524,-0.751,-0.7487,-0.7447,-0.7419,-0.738,-0.7362,-0.7334,-0.731,-0.7277,-0.7273,-0.7226,-0.7236,-0.7217,-0.7198,-0.7197,-0.719,-0.7187,-0.7186,-0.7183,-0.7181,-0.7187,-0.7187,-0.7187,0,-0.7659,-0.7603,-0.7569,-0.755,-0.7496,-0.7481,-0.7457,-0.7418,-0.7395,-0.736,-0.7345,-0.7306,-0.7284,-0.7254,-0.7221,-0.7221,-0.7178,-0.7171,-0.7161,-0.7162,-0.7152,-0.7152,-0.7144,-0.7141,-0.7141,-0.7141,-0.7141,0,-0.7646,-0.762,-0.7573,-0.7552,-0.7522,-0.7488,-0.7459,-0.7433,-0.7399,-0.7372,-0.7345,-0.732,-0.7278,-0.7248,-0.7222,-0.7187,-0.7177,-0.7162,-0.7155,-0.7163,-0.7165,-0.7149,-0.7148,-0.714,-0.714,-0.7141,-0.7141,0,-0.7652,-0.762,-0.7581,-0.7534,-0.7522,-0.7501,-0.746,-0.7439,-0.7412,-0.7379,-0.7369,-0.7327,-0.729,-0.7254,-0.7204,-0.7187,-0.7152,-0.7144,-0.7166,-0.7162,-0.7154,-0.7155,-0.7134,-0.7129,-0.713,-0.713,-0.713,0,-0.7646,-0.7625,-0.7576,-0.7557,-0.7535,-0.7504,-0.7481,-0.7448,-0.7425,-0.738,-0.7363,-0.7325,-0.7293,-0.7235,-0.72,-0.7162,-0.7151,-0.7147,-0.7145,-0.7155,-0.7151,-0.7152,-0.715,-0.7147,-0.7147,-0.7148,-0.7148,0,-0.7637,-0.7623,-0.7591,-0.7555,-0.7529,-0.7499,-0.7467,-0.7453,-0.7413,-0.7389,-0.7352,-0.7327,-0.7278,-0.724,-0.7198,-0.7173,-0.7153,-0.7149,-0.7145,-0.7152,-0.7166,-0.7158,-0.7167,-0.7149,-0.7149,-0.7149,-0.7149,-0.7149,-0.7636,-0.7616,-0.758,-0.7546,-0.7519,-0.7491,-0.7469,-0.7441,-0.741,-0.7367,-0.735,-0.7312,-0.7275,-0.7217,-0.7193,-0.7162,-0.7157,-0.7151,-0.7149,-0.7148,-0.715,-0.7172,-0.7155,-0.7155,-0.7155,-0.7154,-0.7154,0,-0.7625,-0.7601,-0.757,-0.7528,-0.7502,-0.7488,-0.7453,-0.7432,-0.74,-0.7367,-0.7336,-0.7294,-0.7258,-0.7221,-0.7182,-0.7166,-0.7156,-0.7157,-0.7157,-0.7151,-0.7157,-0.7164,-0.7165,-0.7165,-0.7165,-0.7165,-0.7165,-0.7165,-0.7616,-0.7583,-0.7565,-0.7518,-0.7493,-0.7458,-0.7439,-0.7413,-0.7386,-0.7341,-0.7312,-0.7288,-0.7254,-0.7213,-0.7179,-0.7169,-0.7156,-0.7159,-0.7146,-0.7151,-0.7151,-0.715,-0.7157,-0.7157,-0.7157,-0.7143,-0.7143,-0.7143]},{"header":{"parameterUnit":"m.s-1","parameterCategory":1,"la1":30.2991,"la2":30.254,"lo1":-89.0895,"lo2":-89.0444,"dy":0.0017,"dx":0.0017,"nx":28,"ny":28,"refTime":"2025-03-26T09:00:00:Z","depth":0,"parameterNumber":3,"parameterNumberName":"V-component_of_WINDS"},"data":[0,0,0,0,0,0,0,0,0,0,0,0,0,0,0,0,0,0,0,0,0,0,0,0,0,0,0,0,0,0,0,0,0,0,0,0,0,0,0,0,0,0,0,0,0,0,0,0,0,0,0,0,0,0,0,0,0,0,1.1196,1.1196,0,1.1193,1.1193,1.1193,1.1119,1.1117,1.1115,1.1113,1.1109,1.1111,1.1112,0,0,0,0,0,0,0,0,0,0,0,0,0,1.1133,1.1134,1.1196,1.1196,1.1196,1.1193,1.1193,1.1193,1.1119,1.1117,1.1115,1.1113,1.1108,1.111,1.1112,0,0,0,0,0,0,0,0,0,0,0,0,0,1.1148,1.1135,1.1196,1.1159,1.1156,1.1193,1.1193,1.1193,1.112,1.1117,1.1114,1.1111,1.1108,1.111,1.1113,1.1185,0,0,1.112,1.1121,0,0,0,0,0,0,0,0,1.1147,1.1151,1.1165,1.1162,1.1158,1.1154,1.1169,1.119,1.1121,1.1133,1.1113,1.111,1.1126,1.1127,1.1132,1.1185,1.1185,1.112,1.1122,1.1123,1.1124,0,0,0,0,0,0,0,1.1146,1.115,1.1195,1.1165,1.1161,1.1141,1.114,1.1173,1.1146,1.1132,1.1127,1.1127,1.1124,1.113,1.1132,1.1185,1.112,1.1123,1.1124,1.1125,1.1288,1.1291,0,0,0,0,0,0,1.1151,1.115,1.1195,1.1195,1.1146,1.1144,1.1143,1.1158,1.1145,1.1141,1.113,1.1124,1.1127,1.1129,1.1131,1.1209,1.1123,1.1125,1.1127,1.1285,1.1288,1.1292,0,0,0,0,0,0,1.115,1.1156,1.1195,1.1171,1.1174,1.1148,1.1165,1.1159,1.1166,1.1143,1.1138,1.1142,1.1125,1.1128,1.117,1.1208,1.1126,1.1129,1.1282,1.1286,1.129,1.1369,0,0,0,0,0,0,1.1148,1.1156,1.1185,1.1172,1.1176,1.1236,1.1168,1.1161,1.117,1.1163,1.1153,1.1149,1.1123,1.1167,1.1173,1.121,1.1131,1.1278,1.1284,1.1289,1.1363,1.1375,1.1386,0,0,0,0,0,1.1146,1.1209,1.1187,1.1192,1.1212,1.1239,1.1241,1.121,1.1174,1.1201,1.1185,1.1149,1.1204,1.1172,1.1178,1.1216,1.1276,1.1282,1.1288,1.1358,1.1373,1.1386,0,0,0,0,0,0,1.1227,1.1206,1.1182,1.1242,1.1242,1.1226,1.126,1.1229,1.1239,1.1232,1.1193,1.1191,1.1238,1.1232,1.1197,1.1282,1.1233,1.1241,1.1284,1.1298,1.1309,1.1308,1.1133,0,0,0,0,0,1.1252,1.1277,1.1257,1.1312,1.1313,1.1287,1.1298,1.1273,1.1272,1.1272,1.126,1.126,1.1275,1.1287,1.1302,1.1363,1.1356,1.1392,1.1403,1.1413,1.1419,1.1443,1.1457,1.1312,1.1312,1.1312,0,0,1.1304,1.1295,1.1314,1.1328,1.1325,1.1349,1.1287,1.1317,1.1333,1.1277,1.1314,1.1305,1.1302,1.1352,1.1373,1.1348,1.1457,1.1421,1.1429,1.1429,1.1451,1.1465,1.1477,1.1317,1.1316,1.1315,0,0,1.1408,1.1407,1.1449,1.1447,1.1443,1.1424,1.1434,1.1422,1.1413,1.145,1.1406,1.1425,1.1456,1.1452,1.1455,1.1553,1.1517,1.1559,1.1618,1.1643,1.1654,1.1664,1.1692,1.1704,1.1566,1.1566,1.1566,0,1.1472,1.1507,1.1475,1.1504,1.1509,1.1459,1.1498,1.1498,1.15,1.1503,1.1475,1.1508,1.1503,1.1547,1.1571,1.1577,1.1583,1.1558,1.1655,1.1665,1.1673,1.17,1.1711,1.157,1.157,1.1569,1.1569,0,1.1582,1.1607,1.1641,1.1641,1.1651,1.1686,1.1655,1.1669,1.1643,1.1626,1.1661,1.1653,1.1661,1.1671,1.1648,1.1711,1.1695,1.1662,1.1611,1.1692,1.1716,1.1727,1.1577,1.1575,1.1574,1.1573,0,0,1.1738,1.1716,1.1729,1.1725,1.1715,1.1733,1.1764,1.1771,1.178,1.1782,1.1803,1.1828,1.1796,1.1798,1.1774,1.1797,1.1866,1.176,1.1759,1.1775,1.1928,1.1948,1.1961,1.1844,1.1846,1.1848,1.1926,0,1.1833,1.1884,1.1853,1.1908,1.1926,1.1877,1.1902,1.1898,1.1882,1.1894,1.1877,1.1892,1.1852,1.1852,1.1872,1.1854,1.1895,1.1848,1.1859,1.186,1.1856,1.1975,1.1998,1.2073,1.1936,1.1937,1.1939,0,1.1952,1.1956,1.2011,1.1992,1.1998,1.2022,1.2023,1.2037,1.2028,1.2015,1.2016,1.1984,1.2009,1.1962,1.1993,1.1962,1.1965,1.1956,1.1958,1.1954,1.1901,1.1968,1.2096,1.2105,1.1954,1.1953,1.1952,0,1.2051,1.2071,1.2105,1.2104,1.2084,1.2101,1.2093,1.2082,1.2087,1.2088,1.2089,1.2094,1.2095,1.2098,1.2067,1.2036,1.2099,1.2051,1.2085,1.2085,1.2097,1.2096,1.2222,1.2109,1.2108,1.2108,1.2108,0,1.2157,1.2192,1.2148,1.2168,1.2203,1.2167,1.2203,1.219,1.2179,1.2194,1.2153,1.2168,1.2128,1.2138,1.2114,1.2139,1.2142,1.2129,1.2121,1.2129,1.213,1.2127,1.2119,1.2111,1.211,1.211,1.2109,0,1.2273,1.2246,1.2278,1.2255,1.225,1.2276,1.2255,1.2272,1.2252,1.2271,1.2273,1.2243,1.2251,1.2221,1.2226,1.2209,1.2245,1.2232,1.2247,1.2241,1.2274,1.2269,1.2398,1.241,1.2295,1.2296,1.2297,0,1.234,1.2364,1.2343,1.2349,1.2343,1.2355,1.2358,1.2322,1.2327,1.2316,1.2332,1.2337,1.2339,1.2354,1.2331,1.2332,1.2315,1.236,1.2315,1.232,1.2308,1.2305,1.2304,1.2368,1.237,1.2371,1.2372,0,1.246,1.2444,1.245,1.245,1.2454,1.2453,1.2449,1.2456,1.2417,1.2424,1.2431,1.2432,1.2434,1.2437,1.2433,1.2423,1.2389,1.2386,1.2393,1.2399,1.2405,1.2396,1.2267,1.2383,1.2382,1.2381,1.238,1.238,1.2549,1.2565,1.2551,1.2557,1.255,1.2546,1.2558,1.2539,1.2544,1.2542,1.2521,1.2531,1.2517,1.2508,1.2501,1.2506,1.2485,1.2496,1.2498,1.25,1.2503,1.2408,1.2506,1.2506,1.2505,1.2505,1.2505,0,1.2661,1.2648,1.2655,1.2648,1.2652,1.2621,1.2613,1.2618,1.2627,1.2617,1.2618,1.2623,1.2625,1.2602,1.26,1.2608,1.2592,1.2608,1.2605,1.2602,1.2525,1.2517,1.2621,1.2621,1.2621,1.2621,1.2621,1.2621,1.2719,1.2743,1.2725,1.2744,1.2731,1.274,1.2737,1.2731,1.2722,1.273,1.2731,1.2715,1.2698,1.2694,1.2693,1.2685,1.2684,1.2704,1.2691,1.2619,1.2608,1.2597,1.2588,1.2706,1.2706,1.2766,1.2767,1.2767]}]]